contact:dominique.lefevre@mio.osupytheas.fr, maurice.libes@osupytheas.fr, didier.mallarino@osupytheas.fr
Project:EMSO http://www.emso-fr.org/EMSO-France
Depth: 2436.0 m
Title:EMSO Ligure Ouest : Data MII capteur MICROCAT
DateTime_Computer,Latitude,Longitude,Temperature,Conductivity,Pressure,DateTime_Instrument
DateTime_Computer,Latitude,Longitude,degC,S m-1,dbar,DateTime_Instrument
2022-09-22T00:01:14Z,42.805,6.029,13.3051,4.60078,2470.553,2022-9-22T02:03:07Z
2022-09-22T00:04:17Z,42.805,6.029,13.3051,4.60074,2470.567,2022-9-22T02:06:10Z
2022-09-22T00:07:20Z,42.805,6.029,13.3051,4.60077,2470.553,2022-9-22T02:09:13Z
2022-09-22T00:10:23Z,42.805,6.029,13.3037,4.60095,2470.544,2022-9-22T02:12:16Z
2022-09-22T00:13:27Z,42.805,6.029,13.3041,4.60092,2470.553,2022-9-22T02:15:20Z
2022-09-22T00:16:30Z,42.805,6.029,13.3067,4.60074,2470.516,2022-9-22T02:18:23Z
2022-09-22T00:19:33Z,42.805,6.029,13.3051,4.60074,2470.577,2022-9-22T02:21:26Z
2022-09-22T00:22:36Z,42.805,6.029,13.3052,4.60077,2470.591,2022-9-22T02:24:29Z
2022-09-22T00:25:39Z,42.805,6.029,13.3051,4.60082,2470.567,2022-9-22T02:27:32Z
2022-09-22T00:28:42Z,42.805,6.029,13.3048,4.60080,2470.567,2022-9-22T02:30:35Z
2022-09-22T00:31:45Z,42.805,6.029,13.3054,4.60080,2470.567,2022-9-22T02:33:38Z
2022-09-22T00:34:48Z,42.805,6.029,13.3054,4.60081,2470.53,2022-9-22T02:36:41Z
2022-09-22T00:37:52Z,42.805,6.029,13.3043,4.60079,2470.567,2022-9-22T02:39:45Z
2022-09-22T00:40:55Z,42.805,6.029,13.3046,4.60072,2470.614,2022-9-22T02:42:48Z
2022-09-22T00:43:58Z,42.805,6.029,13.3039,4.60079,2470.53,2022-9-22T02:45:51Z
2022-09-22T00:47:01Z,42.805,6.029,13.3061,4.60081,2470.567,2022-9-22T02:48:54Z
2022-09-22T00:50:04Z,42.805,6.029,13.3057,4.60080,2470.567,2022-9-22T02:51:57Z
2022-09-22T00:53:07Z,42.805,6.029,13.3051,4.60092,2470.553,2022-9-22T02:55:00Z
2022-09-22T00:56:10Z,42.805,6.029,13.3055,4.60084,2470.553,2022-9-22T02:58:03Z
2022-09-22T00:59:13Z,42.805,6.029,13.3051,4.60072,2470.567,2022-9-22T03:01:06Z
2022-09-22T01:02:17Z,42.805,6.029,13.3031,4.60075,2470.553,2022-9-22T03:04:10Z
2022-09-22T01:05:20Z,42.805,6.029,13.3033,4.60089,2470.544,2022-9-22T03:07:13Z
2022-09-22T01:08:23Z,42.805,6.029,13.3048,4.60084,2470.53,2022-9-22T03:10:16Z
2022-09-22T01:11:26Z,42.805,6.029,13.3063,4.60079,2470.577,2022-9-22T03:13:19Z
2022-09-22T01:14:29Z,42.805,6.029,13.3056,4.60082,2470.553,2022-9-22T03:16:22Z
2022-09-22T01:17:32Z,42.805,6.029,13.3056,4.60075,2470.567,2022-9-22T03:19:25Z
2022-09-22T01:20:35Z,42.805,6.029,13.3051,4.60081,2470.553,2022-9-22T03:22:28Z
2022-09-22T01:23:38Z,42.805,6.029,13.3069,4.60069,2470.577,2022-9-22T03:25:31Z
2022-09-22T01:26:42Z,42.805,6.029,13.3043,4.60100,2470.553,2022-9-22T03:28:35Z
2022-09-22T01:29:45Z,42.805,6.029,13.3050,4.60077,2470.614,2022-9-22T03:31:38Z
2022-09-22T01:32:48Z,42.805,6.029,13.3036,4.60084,2470.591,2022-9-22T03:34:41Z
2022-09-22T01:35:51Z,42.805,6.029,13.3047,4.60086,2470.567,2022-9-22T03:37:44Z
2022-09-22T01:38:54Z,42.805,6.029,13.3044,4.60081,2470.553,2022-9-22T03:40:47Z
2022-09-22T01:41:57Z,42.805,6.029,13.3051,4.60094,2470.567,2022-9-22T03:43:50Z
2022-09-22T01:45:00Z,42.805,6.029,13.3047,4.60081,2470.53,2022-9-22T03:46:53Z
2022-09-22T01:48:03Z,42.805,6.029,13.3047,4.60088,2470.553,2022-9-22T03:49:56Z
2022-09-22T01:51:07Z,42.805,6.029,13.3049,4.60093,2470.553,2022-9-22T03:53:00Z
2022-09-22T01:54:10Z,42.805,6.029,13.3056,4.60089,2470.6,2022-9-22T03:56:03Z
2022-09-22T01:57:13Z,42.805,6.029,13.3045,4.60089,2470.567,2022-9-22T03:59:06Z
2022-09-22T02:00:16Z,42.805,6.029,13.3047,4.60088,2470.591,2022-9-22T04:02:09Z
2022-09-22T02:03:19Z,42.805,6.029,13.3081,4.60119,2470.591,2022-9-22T04:05:12Z
2022-09-22T02:06:22Z,42.805,6.029,13.3058,4.60095,2470.553,2022-9-22T04:08:15Z
2022-09-22T02:09:25Z,42.805,6.029,13.3043,4.60089,2470.614,2022-9-22T04:11:18Z
2022-09-22T02:12:28Z,42.805,6.029,13.3069,4.60082,2470.553,2022-9-22T04:14:21Z
2022-09-22T02:15:31Z,42.805,6.029,13.3043,4.60094,2470.591,2022-9-22T04:17:24Z
2022-09-22T02:18:35Z,42.805,6.029,13.3043,4.60085,2470.591,2022-9-22T04:20:28Z
2022-09-22T02:21:38Z,42.805,6.029,13.3120,4.60105,2470.6,2022-9-22T04:23:31Z
2022-09-22T02:24:41Z,42.805,6.029,13.3043,4.60100,2470.567,2022-9-22T04:26:34Z
2022-09-22T02:27:44Z,42.805,6.029,13.3065,4.60084,2470.614,2022-9-22T04:29:37Z
2022-09-22T02:30:47Z,42.805,6.029,13.3068,4.60094,2470.6,2022-9-22T04:32:40Z
2022-09-22T02:33:50Z,42.805,6.029,13.3051,4.60087,2470.577,2022-9-22T04:35:43Z
2022-09-22T02:36:53Z,42.805,6.029,13.3058,4.60094,2470.6,2022-9-22T04:38:46Z
2022-09-22T02:39:56Z,42.805,6.029,13.3006,4.60097,2470.614,2022-9-22T04:41:49Z
2022-09-22T02:43:00Z,42.805,6.029,13.3064,4.60073,2470.586,2022-9-22T04:44:53Z
2022-09-22T02:46:03Z,42.805,6.029,13.3063,4.60101,2470.6,2022-9-22T04:47:56Z
2022-09-22T02:49:06Z,42.805,6.029,13.3056,4.60094,2470.6,2022-9-22T04:50:59Z
2022-09-22T02:52:09Z,42.805,6.029,13.3060,4.60099,2470.614,2022-9-22T04:54:02Z
2022-09-22T02:55:12Z,42.805,6.029,13.3056,4.60104,2470.6,2022-9-22T04:57:05Z
2022-09-22T02:58:15Z,42.805,6.029,13.3053,4.60122,2470.591,2022-9-22T05:00:08Z
2022-09-22T03:01:18Z,42.805,6.029,13.3019,4.60108,2470.6,2022-9-22T05:03:11Z
2022-09-22T03:04:21Z,42.805,6.029,13.3009,4.60112,2470.614,2022-9-22T05:06:14Z
2022-09-22T03:07:25Z,42.805,6.029,13.3016,4.60129,2470.567,2022-9-22T05:09:18Z
2022-09-22T03:10:28Z,42.805,6.029,13.3014,4.60096,2470.637,2022-9-22T05:12:21Z
2022-09-22T03:13:31Z,42.805,6.029,13.3008,4.60084,2470.577,2022-9-22T05:15:24Z
2022-09-22T03:16:34Z,42.805,6.029,13.3012,4.60079,2470.6,2022-9-22T05:18:27Z
2022-09-22T03:19:37Z,42.805,6.029,13.3009,4.60072,2470.614,2022-9-22T05:21:30Z
2022-09-22T03:22:40Z,42.805,6.029,13.3010,4.60073,2470.661,2022-9-22T05:24:33Z
2022-09-22T03:25:43Z,42.805,6.029,13.3011,4.60068,2470.624,2022-9-22T05:27:36Z
2022-09-22T03:28:46Z,42.805,6.029,13.3011,4.60069,2470.624,2022-9-22T05:30:39Z
2022-09-22T03:31:50Z,42.805,6.029,13.3006,4.60077,2470.614,2022-9-22T05:33:43Z
2022-09-22T03:34:53Z,42.805,6.029,13.3006,4.60072,2470.614,2022-9-22T05:36:46Z
2022-09-22T03:37:56Z,42.805,6.029,13.3008,4.60075,2470.646,2022-9-22T05:39:49Z
2022-09-22T03:40:59Z,42.805,6.029,13.3010,4.60076,2470.661,2022-9-22T05:42:52Z
2022-09-22T03:44:02Z,42.805,6.029,13.3006,4.60074,2470.624,2022-9-22T05:45:55Z
2022-09-22T03:47:05Z,42.805,6.029,13.3009,4.60072,2470.646,2022-9-22T05:48:58Z
2022-09-22T03:50:08Z,42.805,6.029,13.3010,4.60082,2470.6,2022-9-22T05:52:01Z
2022-09-22T03:53:11Z,42.805,6.029,13.3011,4.60098,2470.637,2022-9-22T05:55:04Z
2022-09-22T03:56:14Z,42.805,6.029,13.3008,4.60077,2470.646,2022-9-22T05:58:07Z
2022-09-22T03:59:18Z,42.805,6.029,13.3011,4.60079,2470.646,2022-9-22T06:01:11Z
2022-09-22T04:02:21Z,42.805,6.029,13.3011,4.60097,2470.624,2022-9-22T06:04:14Z
2022-09-22T04:05:24Z,42.805,6.029,13.3011,4.60080,2470.577,2022-9-22T06:07:17Z
2022-09-22T04:08:27Z,42.805,6.029,13.3008,4.60131,2470.614,2022-9-22T06:10:20Z
2022-09-22T04:11:30Z,42.805,6.029,13.3008,4.60142,2470.624,2022-9-22T06:13:23Z
2022-09-22T04:14:33Z,42.805,6.029,13.3009,4.60106,2470.624,2022-9-22T06:16:26Z
2022-09-22T04:17:36Z,42.805,6.029,13.3010,4.60092,2470.661,2022-9-22T06:19:29Z
2022-09-22T04:20:39Z,42.805,6.029,13.3010,4.60096,2470.6,2022-9-22T06:22:32Z
2022-09-22T04:23:43Z,42.805,6.029,13.3009,4.60092,2470.591,2022-9-22T06:25:36Z
2022-09-22T04:26:46Z,42.805,6.029,13.3009,4.60077,2470.624,2022-9-22T06:28:39Z
2022-09-22T04:29:49Z,42.805,6.029,13.3009,4.60079,2470.624,2022-9-22T06:31:42Z
2022-09-22T04:32:52Z,42.805,6.029,13.3013,4.60070,2470.624,2022-9-22T06:34:45Z
2022-09-22T04:35:55Z,42.805,6.029,13.3009,4.60085,2470.646,2022-9-22T06:37:48Z
2022-09-22T04:38:58Z,42.805,6.029,13.3008,4.60081,2470.6,2022-9-22T06:40:51Z
2022-09-22T04:42:01Z,42.805,6.029,13.3012,4.60109,2470.624,2022-9-22T06:43:54Z
2022-09-22T04:45:04Z,42.805,6.029,13.3006,4.60088,2470.646,2022-9-22T06:46:57Z
2022-09-22T04:48:08Z,42.805,6.029,13.3009,4.60088,2470.591,2022-9-22T06:50:01Z
2022-09-22T04:51:11Z,42.805,6.029,13.3006,4.60105,2470.624,2022-9-22T06:53:04Z
2022-09-22T04:54:14Z,42.805,6.029,13.3010,4.60097,2470.624,2022-9-22T06:56:07Z
2022-09-22T04:57:17Z,42.805,6.029,13.3006,4.60080,2470.624,2022-9-22T06:59:10Z
2022-09-22T05:00:20Z,42.805,6.029,13.3008,4.60092,2470.646,2022-9-22T07:02:13Z
2022-09-22T05:03:23Z,42.805,6.029,13.3010,4.60084,2470.637,2022-9-22T07:05:16Z
2022-09-22T05:06:26Z,42.805,6.029,13.3009,4.60097,2470.624,2022-9-22T07:08:19Z
2022-09-22T05:09:29Z,42.805,6.029,13.3009,4.60078,2470.67,2022-9-22T07:11:22Z
2022-09-22T05:12:33Z,42.805,6.029,13.3010,4.60080,2470.646,2022-9-22T07:14:26Z
2022-09-22T05:15:36Z,42.805,6.029,13.3010,4.60085,2470.614,2022-9-22T07:17:29Z
2022-09-22T05:18:39Z,42.805,6.029,13.3011,4.60081,2470.624,2022-9-22T07:20:32Z
2022-09-22T05:21:42Z,42.805,6.029,13.3011,4.60095,2470.646,2022-9-22T07:23:35Z
2022-09-22T05:24:45Z,42.805,6.029,13.3009,4.60080,2470.624,2022-9-22T07:26:38Z
2022-09-22T05:27:48Z,42.805,6.029,13.3010,4.60092,2470.624,2022-9-22T07:29:41Z
2022-09-22T05:30:51Z,42.805,6.029,13.3009,4.60096,2470.637,2022-9-22T07:32:44Z
2022-09-22T05:33:54Z,42.805,6.029,13.3013,4.60123,2470.624,2022-9-22T07:35:47Z
2022-09-22T05:36:57Z,42.805,6.029,13.3019,4.60111,2470.614,2022-9-22T07:38:51Z
2022-09-22T05:40:01Z,42.805,6.029,13.3024,4.60125,2470.624,2022-9-22T07:41:54Z
2022-09-22T05:43:04Z,42.805,6.029,13.3028,4.60150,2470.646,2022-9-22T07:44:57Z
2022-09-22T05:46:07Z,42.805,6.029,13.3028,4.60132,2470.637,2022-9-22T07:48:00Z
2022-09-22T05:49:10Z,42.805,6.029,13.3036,4.60077,2470.637,2022-9-22T07:51:03Z
2022-09-22T05:52:13Z,42.805,6.029,13.3030,4.60064,2470.637,2022-9-22T07:54:06Z
2022-09-22T05:55:16Z,42.805,6.029,13.3036,4.60067,2470.6,2022-9-22T07:57:09Z
2022-09-22T05:58:19Z,42.805,6.029,13.3031,4.60075,2470.646,2022-9-22T08:00:12Z
2022-09-22T06:01:22Z,42.805,6.029,13.3046,4.60081,2470.637,2022-9-22T08:03:15Z
2022-09-22T06:04:26Z,42.805,6.029,13.3041,4.60106,2470.6,2022-9-22T08:06:19Z
2022-09-22T06:07:29Z,42.805,6.029,13.3048,4.60114,2470.661,2022-9-22T08:09:22Z
2022-09-22T06:10:32Z,42.805,6.029,13.3018,4.60073,2470.614,2022-9-22T08:12:25Z
2022-09-22T06:13:35Z,42.805,6.029,13.3013,4.60058,2470.637,2022-9-22T08:15:28Z
2022-09-22T06:16:38Z,42.805,6.029,13.3015,4.60068,2470.614,2022-9-22T08:18:31Z
2022-09-22T06:19:41Z,42.805,6.029,13.3042,4.60069,2470.624,2022-9-22T08:21:34Z
2022-09-22T06:22:44Z,42.805,6.029,13.3018,4.60069,2470.624,2022-9-22T08:24:37Z
2022-09-22T06:25:47Z,42.805,6.029,13.3031,4.60162,2470.646,2022-9-22T08:27:40Z
2022-09-22T06:28:51Z,42.805,6.029,13.3014,4.60092,2470.661,2022-9-22T08:30:44Z
2022-09-22T06:31:54Z,42.805,6.029,13.3015,4.60090,2470.661,2022-9-22T08:33:47Z
2022-09-22T06:34:57Z,42.805,6.029,13.3027,4.60179,2470.637,2022-9-22T08:36:50Z
2022-09-22T06:38:00Z,42.805,6.029,13.3011,4.60085,2470.6,2022-9-22T08:39:53Z
2022-09-22T06:41:03Z,42.805,6.029,13.3012,4.60109,2470.624,2022-9-22T08:42:56Z
2022-09-22T06:44:06Z,42.805,6.029,13.3014,4.60097,2470.661,2022-9-22T08:45:59Z
2022-09-22T06:47:09Z,42.805,6.029,13.3010,4.60073,2470.624,2022-9-22T08:49:02Z
2022-09-22T06:50:12Z,42.805,6.029,13.3010,4.60070,2470.646,2022-9-22T08:52:05Z
2022-09-22T06:53:15Z,42.805,6.029,13.3010,4.60065,2470.637,2022-9-22T08:55:08Z
2022-09-22T06:56:19Z,42.805,6.029,13.3006,4.60063,2470.614,2022-9-22T08:58:12Z
2022-09-22T06:59:22Z,42.805,6.029,13.3012,4.60073,2470.614,2022-9-22T09:01:15Z
2022-09-22T07:02:25Z,42.805,6.029,13.3008,4.60073,2470.624,2022-9-22T09:04:18Z
2022-09-22T07:05:28Z,42.805,6.029,13.3008,4.60078,2470.6,2022-9-22T09:07:21Z
2022-09-22T07:08:31Z,42.805,6.029,13.3009,4.60074,2470.624,2022-9-22T09:10:24Z
2022-09-22T07:11:34Z,42.805,6.029,13.3008,4.60071,2470.637,2022-9-22T09:13:27Z
2022-09-22T07:14:37Z,42.805,6.029,13.3009,4.60069,2470.577,2022-9-22T09:16:30Z
2022-09-22T07:17:40Z,42.805,6.029,13.3011,4.60057,2470.614,2022-9-22T09:19:33Z
2022-09-22T07:20:44Z,42.805,6.029,13.3015,4.60089,2470.577,2022-9-22T09:22:37Z
2022-09-22T07:23:47Z,42.805,6.029,13.3022,4.60072,2470.591,2022-9-22T09:25:40Z
2022-09-22T07:26:50Z,42.805,6.029,13.3009,4.60072,2470.637,2022-9-22T09:28:43Z
2022-09-22T07:29:53Z,42.805,6.029,13.3009,4.60067,2470.614,2022-9-22T09:31:46Z
2022-09-22T07:32:56Z,42.805,6.029,13.3015,4.60072,2470.6,2022-9-22T09:34:49Z
2022-09-22T07:35:59Z,42.805,6.029,13.3028,4.60084,2470.591,2022-9-22T09:37:52Z
2022-09-22T07:39:02Z,42.805,6.029,13.3016,4.60079,2470.6,2022-9-22T09:40:55Z
2022-09-22T07:42:05Z,42.805,6.029,13.3041,4.60065,2470.614,2022-9-22T09:43:58Z
2022-09-22T07:45:09Z,42.805,6.029,13.3045,4.60104,2470.624,2022-9-22T09:47:02Z
2022-09-22T07:48:12Z,42.805,6.029,13.3041,4.60069,2470.6,2022-9-22T09:50:05Z
2022-09-22T07:51:15Z,42.805,6.029,13.3039,4.60070,2470.6,2022-9-22T09:53:08Z
2022-09-22T07:54:18Z,42.805,6.029,13.3062,4.60080,2470.591,2022-9-22T09:56:11Z
2022-09-22T07:57:21Z,42.805,6.029,13.3058,4.60062,2470.614,2022-9-22T09:59:14Z
2022-09-22T08:00:24Z,42.805,6.029,13.3058,4.60090,2470.637,2022-9-22T10:02:17Z
2022-09-22T08:03:27Z,42.805,6.029,13.3050,4.60075,2470.577,2022-9-22T10:05:20Z
2022-09-22T08:06:30Z,42.805,6.029,13.3058,4.60087,2470.614,2022-9-22T10:08:23Z
2022-09-22T08:09:33Z,42.805,6.029,13.3059,4.60132,2470.6,2022-9-22T10:11:27Z
2022-09-22T08:12:37Z,42.805,6.029,13.3041,4.60082,2470.6,2022-9-22T10:14:30Z
2022-09-22T08:15:40Z,42.805,6.029,13.3056,4.60134,2470.624,2022-9-22T10:17:33Z
2022-09-22T08:18:43Z,42.805,6.029,13.3063,4.60080,2470.577,2022-9-22T10:20:36Z
2022-09-22T08:21:46Z,42.805,6.029,13.3058,4.60128,2470.567,2022-9-22T10:23:39Z
2022-09-22T08:24:49Z,42.805,6.029,13.3066,4.60088,2470.577,2022-9-22T10:26:42Z
2022-09-22T08:27:52Z,42.805,6.029,13.3081,4.60067,2470.591,2022-9-22T10:29:45Z
2022-09-22T08:30:55Z,42.805,6.029,13.3053,4.60127,2470.577,2022-9-22T10:32:48Z
2022-09-22T08:33:59Z,42.805,6.029,13.3065,4.60161,2470.591,2022-9-22T10:35:52Z
2022-09-22T08:37:02Z,42.805,6.029,13.3058,4.60114,2470.577,2022-9-22T10:38:55Z
2022-09-22T08:40:05Z,42.805,6.029,13.3069,4.60124,2470.577,2022-9-22T10:41:58Z
2022-09-22T08:43:08Z,42.805,6.029,13.3084,4.60090,2470.53,2022-9-22T10:45:01Z
2022-09-22T08:46:11Z,42.805,6.029,13.3065,4.60074,2470.614,2022-9-22T10:48:04Z
2022-09-22T08:49:14Z,42.805,6.029,13.3040,4.60107,2470.6,2022-9-22T10:51:07Z
2022-09-22T08:52:17Z,42.805,6.029,13.3067,4.60099,2470.591,2022-9-22T10:54:10Z
2022-09-22T08:55:20Z,42.805,6.029,13.3043,4.60093,2470.591,2022-9-22T10:57:13Z
2022-09-22T08:58:24Z,42.805,6.029,13.3057,4.60092,2470.577,2022-9-22T11:00:17Z
2022-09-22T09:01:27Z,42.805,6.029,13.3059,4.60117,2470.567,2022-9-22T11:03:20Z
2022-09-22T09:04:30Z,42.805,6.029,13.3057,4.60081,2470.577,2022-9-22T11:06:23Z
2022-09-22T09:07:33Z,42.805,6.029,13.3082,4.60116,2470.591,2022-9-22T11:09:26Z
2022-09-22T09:10:36Z,42.805,6.029,13.3058,4.60106,2470.577,2022-9-22T11:12:29Z
2022-09-22T09:13:39Z,42.805,6.029,13.3043,4.60097,2470.553,2022-9-22T11:15:32Z
2022-09-22T09:16:42Z,42.805,6.029,13.3053,4.60129,2470.591,2022-9-22T11:18:35Z
2022-09-22T09:19:45Z,42.805,6.029,13.3037,4.60115,2470.577,2022-9-22T11:21:38Z
2022-09-22T09:22:49Z,42.805,6.029,13.3057,4.60102,2470.604,2022-9-22T11:24:42Z
2022-09-22T09:25:52Z,42.805,6.029,13.3054,4.60110,2470.6,2022-9-22T11:27:45Z
2022-09-22T09:28:55Z,42.805,6.029,13.3048,4.60088,2470.567,2022-9-22T11:30:48Z
2022-09-22T09:31:58Z,42.805,6.029,13.3034,4.60117,2470.591,2022-9-22T11:33:51Z
2022-09-22T09:35:01Z,42.805,6.029,13.3033,4.60150,2470.6,2022-9-22T11:36:54Z
2022-09-22T09:38:04Z,42.805,6.029,13.3052,4.60138,2470.577,2022-9-22T11:39:57Z
2022-09-22T09:41:07Z,42.805,6.029,13.3032,4.60127,2470.567,2022-9-22T11:43:00Z
2022-09-22T09:44:10Z,42.805,6.029,13.3043,4.60169,2470.567,2022-9-22T11:46:03Z
2022-09-22T09:47:14Z,42.805,6.029,13.3052,4.60108,2470.567,2022-9-22T11:49:07Z
2022-09-22T09:50:17Z,42.805,6.029,13.3062,4.60132,2470.6,2022-9-22T11:52:10Z
2022-09-22T09:53:20Z,42.805,6.029,13.3029,4.60140,2470.553,2022-9-22T11:55:13Z
2022-09-22T09:56:23Z,42.805,6.029,13.3032,4.60170,2470.577,2022-9-22T11:58:16Z
2022-09-22T09:59:26Z,42.805,6.029,13.3053,4.60130,2470.53,2022-9-22T12:01:19Z
2022-09-22T10:02:29Z,42.805,6.029,13.3038,4.60128,2470.553,2022-9-22T12:04:22Z
2022-09-22T10:05:32Z,42.805,6.029,13.3051,4.60189,2470.591,2022-9-22T12:07:25Z
2022-09-22T10:08:35Z,42.805,6.029,13.3058,4.60184,2470.567,2022-9-22T12:10:28Z
2022-09-22T10:11:39Z,42.805,6.029,13.3037,4.60181,2470.553,2022-9-22T12:13:32Z
2022-09-22T10:14:42Z,42.805,6.029,13.3082,4.60154,2470.553,2022-9-22T12:16:35Z
2022-09-22T10:17:45Z,42.805,6.029,13.3082,4.60103,2470.553,2022-9-22T12:19:38Z
2022-09-22T10:20:48Z,42.805,6.029,13.3067,4.60139,2470.577,2022-9-22T12:22:41Z
2022-09-22T10:23:51Z,42.805,6.029,13.3089,4.60105,2470.567,2022-9-22T12:25:44Z
2022-09-22T10:26:54Z,42.805,6.029,13.3068,4.60139,2470.52,2022-9-22T12:28:47Z
2022-09-22T10:29:57Z,42.805,6.029,13.3064,4.60173,2470.577,2022-9-22T12:31:50Z
2022-09-22T10:33:00Z,42.805,6.029,13.3052,4.60155,2470.591,2022-9-22T12:34:54Z
2022-09-22T10:36:04Z,42.805,6.029,13.3067,4.60086,2470.567,2022-9-22T12:37:57Z
2022-09-22T10:39:07Z,42.805,6.029,13.3051,4.60092,2470.567,2022-9-22T12:41:00Z
2022-09-22T10:42:10Z,42.805,6.029,13.3071,4.60084,2470.544,2022-9-22T12:44:03Z
2022-09-22T10:45:13Z,42.805,6.029,13.3025,4.60098,2470.577,2022-9-22T12:47:06Z
2022-09-22T10:48:16Z,42.805,6.029,13.3033,4.60176,2470.544,2022-9-22T12:50:09Z
2022-09-22T10:51:19Z,42.805,6.029,13.3051,4.60132,2470.567,2022-9-22T12:53:12Z
2022-09-22T10:54:22Z,42.805,6.029,13.3061,4.60198,2470.567,2022-9-22T12:56:15Z
2022-09-22T10:57:25Z,42.805,6.029,13.3091,4.60135,2470.544,2022-9-22T12:59:19Z
2022-09-22T11:00:29Z,42.805,6.029,13.3093,4.60126,2470.53,2022-9-22T13:02:22Z
2022-09-22T11:03:32Z,42.805,6.029,13.3085,4.60135,2470.53,2022-9-22T13:05:25Z
2022-09-22T11:06:35Z,42.805,6.029,13.3110,4.60103,2470.567,2022-9-22T13:08:28Z
2022-09-22T11:09:38Z,42.805,6.029,13.3093,4.60074,2470.553,2022-9-22T13:11:31Z
2022-09-22T11:12:41Z,42.805,6.029,13.3050,4.60085,2470.544,2022-9-22T13:14:34Z
2022-09-22T11:15:44Z,42.805,6.029,13.3062,4.60092,2470.567,2022-9-22T13:17:37Z
2022-09-22T11:18:47Z,42.805,6.029,13.3064,4.60114,2470.53,2022-9-22T13:20:40Z
2022-09-22T11:21:50Z,42.805,6.029,13.3095,4.60098,2470.507,2022-9-22T13:23:44Z
2022-09-22T11:24:54Z,42.805,6.029,13.3096,4.60120,2470.53,2022-9-22T13:26:47Z
2022-09-22T11:27:57Z,42.805,6.029,13.3103,4.60072,2470.544,2022-9-22T13:29:50Z
2022-09-22T11:31:00Z,42.805,6.029,13.3120,4.60076,2470.553,2022-9-22T13:32:53Z
2022-09-22T11:34:03Z,42.805,6.029,13.3112,4.60081,2470.567,2022-9-22T13:35:56Z
2022-09-22T11:37:06Z,42.805,6.029,13.3106,4.60084,2470.567,2022-9-22T13:38:59Z
2022-09-22T11:40:09Z,42.805,6.029,13.3073,4.60084,2470.567,2022-9-22T13:42:02Z
2022-09-22T11:43:12Z,42.805,6.029,13.3059,4.60079,2470.553,2022-9-22T13:45:05Z
2022-09-22T11:46:15Z,42.805,6.029,13.3056,4.60078,2470.567,2022-9-22T13:48:09Z
2022-09-22T11:49:19Z,42.805,6.029,13.3060,4.60079,2470.553,2022-9-22T13:51:12Z
2022-09-22T11:52:22Z,42.805,6.029,13.3064,4.60078,2470.544,2022-9-22T13:54:15Z
2022-09-22T11:55:25Z,42.805,6.029,13.3068,4.60083,2470.52,2022-9-22T13:57:18Z
2022-09-22T11:58:28Z,42.805,6.029,13.3070,4.60090,2470.53,2022-9-22T14:00:21Z
2022-09-22T12:01:31Z,42.805,6.029,13.3071,4.60081,2470.544,2022-9-22T14:03:24Z
2022-09-22T12:04:34Z,42.805,6.029,13.3096,4.60122,2470.52,2022-9-22T14:06:27Z
2022-09-22T12:07:37Z,42.805,6.029,13.3102,4.60091,2470.544,2022-9-22T14:09:30Z
2022-09-22T12:10:41Z,42.805,6.029,13.3109,4.60110,2470.553,2022-9-22T14:12:34Z
2022-09-22T12:13:44Z,42.805,6.029,13.3109,4.60119,2470.553,2022-9-22T14:15:37Z
2022-09-22T12:16:47Z,42.805,6.029,13.3113,4.60094,2470.544,2022-9-22T14:18:40Z
2022-09-22T12:19:50Z,42.805,6.029,13.3096,4.60072,2470.567,2022-9-22T14:21:43Z
2022-09-22T12:22:53Z,42.805,6.029,13.3054,4.60076,2470.591,2022-9-22T14:24:46Z
2022-09-22T12:25:56Z,42.805,6.029,13.3054,4.60099,2470.591,2022-9-22T14:27:49Z
2022-09-22T12:28:59Z,42.805,6.029,13.3076,4.60103,2470.553,2022-9-22T14:30:52Z
2022-09-22T12:32:02Z,42.805,6.029,13.3079,4.60109,2470.577,2022-9-22T14:33:55Z
2022-09-22T12:35:06Z,42.805,6.029,13.3087,4.60081,2470.544,2022-9-22T14:36:59Z
2022-09-22T12:38:09Z,42.805,6.029,13.3091,4.60084,2470.52,2022-9-22T14:40:02Z
2022-09-22T12:41:12Z,42.805,6.029,13.3076,4.60109,2470.567,2022-9-22T14:43:05Z
2022-09-22T12:44:15Z,42.805,6.029,13.3084,4.60109,2470.591,2022-9-22T14:46:08Z
2022-09-22T12:47:18Z,42.805,6.029,13.3084,4.60104,2470.567,2022-9-22T14:49:11Z
2022-09-22T12:50:21Z,42.805,6.029,13.3076,4.60105,2470.591,2022-9-22T14:52:14Z
2022-09-22T12:53:24Z,42.805,6.029,13.3078,4.60125,2470.544,2022-9-22T14:55:17Z
2022-09-22T12:56:27Z,42.805,6.029,13.3090,4.60165,2470.577,2022-9-22T14:58:20Z
2022-09-22T12:59:31Z,42.805,6.029,13.3082,4.60087,2470.567,2022-9-22T15:01:24Z
2022-09-22T13:02:34Z,42.805,6.029,13.3083,4.60090,2470.591,2022-9-22T15:04:27Z
2022-09-22T13:05:37Z,42.805,6.029,13.3078,4.60089,2470.553,2022-9-22T15:07:30Z
2022-09-22T13:08:40Z,42.805,6.029,13.3081,4.60080,2470.6,2022-9-22T15:10:33Z
2022-09-22T13:11:43Z,42.805,6.029,13.3086,4.60078,2470.591,2022-9-22T15:13:36Z
2022-09-22T13:14:46Z,42.805,6.029,13.3084,4.60094,2470.553,2022-9-22T15:16:39Z
2022-09-22T13:17:49Z,42.805,6.029,13.3078,4.60134,2470.577,2022-9-22T15:19:42Z
2022-09-22T13:20:52Z,42.805,6.029,13.3058,4.60129,2470.591,2022-9-22T15:22:45Z
2022-09-22T13:23:56Z,42.805,6.029,13.3063,4.60088,2470.591,2022-9-22T15:25:49Z
2022-09-22T13:26:59Z,42.805,6.029,13.3067,4.60089,2470.6,2022-9-22T15:28:52Z
2022-09-22T13:30:02Z,42.805,6.029,13.3068,4.60088,2470.577,2022-9-22T15:31:55Z
2022-09-22T13:33:05Z,42.805,6.029,13.3063,4.60084,2470.6,2022-9-22T15:34:58Z
2022-09-22T13:36:08Z,42.805,6.029,13.3067,4.60079,2470.6,2022-9-22T15:38:01Z
2022-09-22T13:39:11Z,42.805,6.029,13.3067,4.60079,2470.577,2022-9-22T15:41:04Z
2022-09-22T13:42:14Z,42.805,6.029,13.3073,4.60091,2470.577,2022-9-22T15:44:07Z
2022-09-22T13:45:17Z,42.805,6.029,13.3076,4.60088,2470.614,2022-9-22T15:47:10Z
2022-09-22T13:48:21Z,42.805,6.029,13.3051,4.60107,2470.6,2022-9-22T15:50:14Z
2022-09-22T13:51:24Z,42.805,6.029,13.3036,4.60093,2470.591,2022-9-22T15:53:17Z
2022-09-22T13:54:27Z,42.805,6.029,13.3057,4.60088,2470.614,2022-9-22T15:56:20Z
2022-09-22T13:57:30Z,42.805,6.029,13.3037,4.60140,2470.624,2022-9-22T15:59:23Z
2022-09-22T14:00:33Z,42.805,6.029,13.3034,4.60137,2470.637,2022-9-22T16:02:26Z
2022-09-22T14:03:36Z,42.805,6.029,13.3054,4.60141,2470.624,2022-9-22T16:05:29Z
2022-09-22T14:06:39Z,42.805,6.029,13.3049,4.60077,2470.577,2022-9-22T16:08:32Z
2022-09-22T14:09:42Z,42.805,6.029,13.3034,4.60112,2470.6,2022-9-22T16:11:35Z
2022-09-22T14:12:46Z,42.805,6.029,13.3061,4.60110,2470.614,2022-9-22T16:14:39Z
2022-09-22T14:15:49Z,42.805,6.029,13.3068,4.60086,2470.624,2022-9-22T16:17:42Z
2022-09-22T14:18:52Z,42.805,6.029,13.3071,4.60078,2470.591,2022-9-22T16:20:45Z
2022-09-22T14:21:55Z,42.805,6.029,13.3060,4.60080,2470.591,2022-9-22T16:23:48Z
2022-09-22T14:24:58Z,42.805,6.029,13.3036,4.60097,2470.637,2022-9-22T16:26:51Z
2022-09-22T14:28:01Z,42.805,6.029,13.3049,4.60122,2470.661,2022-9-22T16:29:54Z
2022-09-22T14:31:04Z,42.805,6.029,13.3072,4.60153,2470.661,2022-9-22T16:32:57Z
2022-09-22T14:34:07Z,42.805,6.029,13.3098,4.60142,2470.637,2022-9-22T16:36:00Z
2022-09-22T14:37:11Z,42.805,6.029,13.3113,4.60175,2470.628,2022-9-22T16:39:04Z
2022-09-22T14:40:14Z,42.805,6.029,13.3108,4.60154,2470.646,2022-9-22T16:42:07Z
2022-09-22T14:43:17Z,42.805,6.029,13.3128,4.60093,2470.637,2022-9-22T16:45:10Z
2022-09-22T14:46:20Z,42.805,6.029,13.3096,4.60081,2470.646,2022-9-22T16:48:13Z
2022-09-22T14:49:23Z,42.805,6.029,13.3054,4.60137,2470.661,2022-9-22T16:51:16Z
2022-09-22T14:52:26Z,42.805,6.029,13.3057,4.60161,2470.591,2022-9-22T16:54:19Z
2022-09-22T14:55:29Z,42.805,6.029,13.3066,4.60103,2470.646,2022-9-22T16:57:22Z
2022-09-22T14:58:32Z,42.805,6.029,13.3068,4.60118,2470.646,2022-9-22T17:00:26Z
2022-09-22T15:01:36Z,42.805,6.029,13.3083,4.60096,2470.661,2022-9-22T17:03:29Z
2022-09-22T15:04:39Z,42.805,6.029,13.3082,4.60114,2470.661,2022-9-22T17:06:32Z
2022-09-22T15:07:42Z,42.805,6.029,13.3058,4.60110,2470.661,2022-9-22T17:09:35Z
2022-09-22T15:10:45Z,42.805,6.029,13.3075,4.60099,2470.661,2022-9-22T17:12:38Z